Content
SEND FEEDBACK

Daily
Averages
Monthly
Summary
United States of America

MAURICEVILLE, TEXAS


Home > North America > United States > Texas
Elevation: 20 feet     Latitude: 30 14N     Longitude: 093 44W

WEATHER
 
SELECT A DAY
Number of Records: 107,564;   Date Range: 8/25/05 - 7/12/14
 
SHARE

PRINT THIS DATA

[ ← Previous Day ]
WEATHER ALMANAC - APRIL 2, 2013
[ Next Day → ]
[ °C ]   °F
Weather ElementAverageHighLow
Temperature65.3 °F75 °F (1:15 pm) (3:15 pm)
Dewpoint59 °F62.8 °F (9:35 pm) (7:00 pm)
Humidity81.7 %99 % (2:15 am)56 % (1:15 pm)
Barometer29.57 in30.07 in (10:55 am) (7:00 pm)
Wind Speed4.2 mph17.3 mph (1:35 pm)
Wind Gust19.6 mph (11:35 am)
Weather ElementAverage
Visibility7.9 mi
Wind DirectionNNE (33.1 °)

Weather ElementTotal
Precipitation0.08 in
Heating Degree Days27.5 (Base 65)
Averaged from 70 records on April 2, 2013
WEATHER CONDITIONS BREAKOUT
WIND DIRECTION BREAKOUT
WEATHER BY HOUR - APRIL 2, 2013
[ °C ]   °F
Local TimeTemperatureDewpointHumidityBarometerVisibilityWind DirectionWind SpeedGust SpeedPrecipitationEventsConditions
12:35 AM61.0 °F59.9 °F96 %30.04 in10.0 miCalmClear
12:55 AM59.9 °F59.0 °F97 %30.04 in5.0 miCalmClear
1:15 AM59.5 °F58.6 °F97 %30.04 in5.0 miCalmClear
1:35 AM59.2 °F58.5 °F97 %30.05 in2.5 miCalmClear
1:55 AM58.5 °F57.7 °F97 %30.04 in1.0 miCalmMist
2:15 AM59.4 °F59.0 °F99 %30.05 in2.5 miCalmClear
2:35 AM58.5 °F57.7 °F97 %30.04 in1.5 miCalmMist
2:55 AM58.1 °F57.6 °F98 %30.03 in1.2 miCalmMist
3:15 AM57.6 °F57.2 °F99 %30.03 in0.5 miCalmFogFog
3:35 AM59.2 °F58.5 °F97 %30.02 in2.0 miCalmClear
3:55 AM59.4 °F59.0 °F99 %30.02 in2.0 miCalmClear
4:15 AM59.5 °F59.0 °F98 %30.03 in2.5 miCalmClear
4:35 AM59.7 °F59.2 °F98 %30.03 in1.0 miCalmMist
4:55 AM59.0 °F58.5 °F98 %30.03 in1.2 miCalmMist
5:15 AM58.5 °F57.9 °F98 %30.03 in2.5 miCalmClear
5:35 AM58.8 °F58.3 °F98 %30.03 in4.0 miCalmClear
5:55 AM58.6 °F58.1 °F98 %30.03 in3.0 miCalmClear
6:15 AM60.1 °F59.5 °F98 %30.02 in5.0 miCalmClear
6:35 AM60.4 °F59.9 °F98 %30.02 in7.0 miCalmClear
6:55 AM59.9 °F59.2 °F97 %30.02 in7.0 miCalmClear
7:15 AM60.6 °F59.9 °F97 %30.02 in5.0 miCalmClear
7:35 AM61.0 °F60.1 °F97 %30.03 in5.0 miCalmClear
7:55 AM61.7 °F59.9 °F94 %30.05 in10.0 miCalmClear
8:15 AM62.6 °F59.9 °F91 %30.05 in10.0 miCalmClear
8:35 AM63.9 °F60.6 °F89 %30.05 in10.0 miEast (90°)8.1 mphClear
8:55 AM64.8 °F60.8 °F87 %30.05 in10.0 miEast (80°)8.1 mphClear
9:35 AM69.1 °F62.6 °F80 %30.05 in10.0 miENE (60°)9.2 mphClear
9:55 AM71.2 °F62.2 °F73 %30.05 in10.0 miEast (90°)10.4 mphClear
10:15 AM70.7 °F61.0 °F71 %30.06 in10.0 miEast (100°)11.5 mphClear
10:35 AM71.2 °F60.3 °F68 %30.06 in10.0 miESE (120°)11.5 mph16.1 mphClear
10:55 AM71.2 °F60.1 °F68 %30.07 in10.0 miESE (110°)9.2 mphClear
11:15 AM71.6 °F60.3 °F67 %30.07 in10.0 miESE (120°)11.5 mphClear
11:35 AM72.1 °F59.9 °F65 %30.06 in10.0 miESE (110°)16.1 mph19.6 mphClear
11:55 AM72.3 °F57.9 °F60 %30.05 in10.0 miEast (100°)15.0 mphClear
12:15 PM72.5 °F57.2 °F59 %30.05 in10.0 miEast (100°)13.8 mph18.4 mphClear
12:35 PM73.4 °F57.6 °F58 %30.03 in10.0 miEast (100°)9.2 mph17.3 mphClear
12:55 PM73.8 °F58.6 °F59 %30.03 in10.0 miEast (100°)10.4 mph18.4 mphClear
1:15 PM75.0 °F58.3 °F56 %30.01 in10.0 miESE (110°)12.7 mphClear
1:35 PM74.5 °F59.5 °F60 %29.99 in10.0 miENE (70°)17.3 mphScattered Clouds
1:55 PM74.3 °F60.1 °F61 %30.02 in10.0 miEast (80°)8.1 mphScattered Clouds
2:15 PM74.3 °F60.1 °F61 %30.01 in10.0 miEast (80°)10.4 mphOvercast
2:35 PM73.4 °F60.3 °F63 %30.01 in10.0 miCalmRainLight Rain
2:55 PM72.5 °F60.3 °F65 %30.01 in10.0 miESE (120°)4.6 mphOvercast
3:15 PM0.0 °F0.0 °F10.0 miNorthOvercast
3:35 PM73.6 °F59.5 °F61 %29.99 in10.0 miCalmOvercast
3:55 PM73.0 °F60.4 °F65 %30.00 in10.0 miCalmOvercast
4:15 PM74.1 °F61.3 °F64 %29.98 in10.0 miCalmOvercast
4:35 PM73.8 °F59.2 °F60 %29.98 in10.0 miEast (80°)4.6 mphOvercast
4:55 PM73.0 °F59.7 °F63 %29.97 in10.0 miENE (60°)5.8 mphMostly Cloudy
5:15 PM74.3 °F59.4 °F60 %29.96 in10.0 miEast (80°)11.5 mphMostly Cloudy
5:35 PM72.9 °F57.9 °F59 %29.94 in10.0 miENE (60°)12.7 mphScattered Clouds
5:55 PM72.5 °F56.3 °F57 %29.94 in10.0 miNE (50°)11.5 mphScattered Clouds
6:15 PM72.0 °F55.6 °F56 %29.93 in10.0 miCalmMostly Cloudy
6:35 PM71.1 °F58.8 °F65 %29.95 in10.0 miCalmRainLight Rain
6:55 PM65.5 °F62.4 °F90 %29.95 in5.0 miEast (80°)13.8 mph0.03 inRainLight Rain
7:15 PM65.1 °F62.1 °F90 %29.95 in10.0 miNE (50°)10.4 mph0.01 inOvercast
7:35 PM64.6 °F61.7 °F90 %29.94 in10.0 miENE (60°)9.2 mph0.01 inMostly Cloudy
7:55 PM64.6 °F61.7 °F90 %29.93 in10.0 miCalm0.01 inScattered Clouds
8:15 PM64.4 °F61.7 °F91 %29.93 in10.0 miCalmScattered Clouds
8:35 PM64.6 °F61.7 °F90 %29.93 in10.0 miCalmRainLight Rain
8:55 PM65.5 °F61.7 °F88 %29.94 in10.0 miCalm0.01 inRainRain
9:15 PM66.2 °F62.1 °F86 %29.94 in10.0 miCalmOvercast
9:35 PM66.2 °F62.8 °F89 %29.94 in10.0 miCalmRainLight Rain
9:55 PM66.2 °F62.6 °F88 %29.94 in10.0 miCalmOvercast
10:15 PM66.2 °F62.6 °F88 %29.92 in10.0 miCalmMostly Cloudy
10:35 PM65.5 °F62.6 °F90 %29.91 in10.0 miCalmScattered Clouds
10:55 PM65.5 °F62.6 °F90 %29.91 in10.0 miCalmMostly Cloudy
11:15 PM65.3 °F62.6 °F91 %29.89 in10.0 miCalmMostly Cloudy
11:35 PM65.7 °F62.1 °F88 %29.88 in10.0 miCalmRain-ThunderstormLight Thunderstorms and Rain
11:55 PM65.5 °F61.9 °F88 %29.86 in10.0 miENE (60°)10.4 mph17.3 mph0.01 inRain-ThunderstormLight Thunderstorms and Rain
Hourly data recorded from KORG, located miles away from Mauriceville, Texas







STORIES FROM OUR PARTNERS